North Bennington, VT

2:37 AM EST on December 11, 2016 (GMT -0500)
Morse State

Weather History for KDDH - October, 2012

Change the Weather History Date:

Wednesday, October 17, 2012

  Actual Average Record
Temperature  
Mean Temperature 44 °F 47 °F  
Max Temperature 59 °F 58 °F 72 °F (1999)
Min Temperature 28 °F 36 °F 28 °F (2003)
Degree Days  
Heating Degree Days 21 18  
Month to date heating degree days 242 259  
Since 1 July heating degree days 457 537  
Cooling Degree Days 0 0  
Month to date cooling degree days 2 0  
Year to date cooling degree days 476 311  
Moisture  
Dew Point 34 °F    
Average Humidity 69    
Maximum Humidity 100    
Minimum Humidity 37    
Precipitation  
Precipitation 0.00 in 0.13 in 0.39 in (2006)
Month to date precipitation 2.36 2.13  
Year to date precipitation 26.97 33.24  
Sea Level Pressure  
Sea Level Pressure 29.97 in    
Wind  
Wind Speed 1 mph (West)    
Max Wind Speed 7 mph    
Max Gust Speed 12 mph    
Visibility 10 miles    
Events      
T = Trace of Precipitation, MM = Missing Value Source: NWS Daily Summary

Daily Weather History Graph

Daily Weather History Graph

Search for Another Location

Airport or City:

Trip Planner

Search our weather history database for the weather conditions in past years. The results will help you decide how hot, cold, wet, or windy it might be!

Date:

Astronomy

Oct. 17, 2012 Rise Set
Actual Time 7:09 AM EDT 6:06 PM EDT
Civil Twilight 6:40 AM EDT 6:35 PM EDT
Nautical Twilight 6:07 AM EDT 7:07 PM EDT
Astronomical Twilight 5:34 AM EDT 7:40 PM EDT
Moon 9:44 AM EDT (10/17) 7:35 PM EDT (10/17)
Length of Visible Light 11h 54m
Length of Day
10h 57m
Waxing Crescent, 7% of the Moon is Illuminated
Oct 17
Waxing Crescent
Oct 21
First Quarter
Oct 29
Full
Nov 6
Last Quarter
Nov 13
New

Hourly Weather History & Observations

Time (EDT) Temp. Windchill Dew Point Humidity Pressure Visibility Wind Dir Wind Speed Gust Speed Precip Events Conditions
12:54 AM 32.0 °F 28.7 °F 28.9 °F 88% 29.93 in 10.0 mi SE 3.5 mph - N/A   Clear
2:54 AM 30.0 °F - 28.0 °F 92% 29.94 in 9.0 mi Calm Calm - N/A   Clear
3:54 AM 28.9 °F - 28.0 °F 96% 29.95 in 9.0 mi Calm Calm - N/A   Clear
4:54 AM 28.9 °F - 28.0 °F 96% 29.95 in 8.0 mi Calm Calm - N/A   Clear
5:54 AM 30.0 °F - 28.0 °F 92% 29.96 in 10.0 mi Calm Calm - N/A   Clear
6:54 AM 30.0 °F - 27.0 °F 88% 29.98 in 10.0 mi Calm Calm - N/A   Clear
7:54 AM 30.0 °F - 28.9 °F 96% 29.99 in 10.0 mi Calm Calm - N/A   Clear
8:54 AM 35.1 °F - 33.1 °F 92% 30.00 in 8.0 mi Calm Calm - N/A   Clear
9:54 AM 41.0 °F - 34.0 °F 76% 30.00 in 10.0 mi Calm Calm - N/A   Clear
10:54 AM 48.0 °F - 37.0 °F 66% 30.01 in 10.0 mi Calm Calm - N/A   Clear
11:54 AM 51.1 °F - 35.1 °F 54% 29.99 in 10.0 mi Calm Calm - N/A   Clear
12:54 PM 55.0 °F - 36.0 °F 49% 29.96 in 10.0 mi WNW 4.6 mph - N/A   Clear
1:54 PM 55.0 °F - 35.1 °F 47% 29.95 in 10.0 mi NW 4.6 mph - N/A   Clear
2:54 PM 57.0 °F - 35.1 °F 44% 29.94 in 10.0 mi NW 4.6 mph - N/A   Clear
3:54 PM 59.0 °F - 34.0 °F 39% 29.93 in 10.0 mi Calm Calm - N/A   Clear
4:54 PM 57.9 °F - 34.0 °F 41% 29.93 in 10.0 mi Calm Calm - N/A   Clear
5:54 PM 50.0 °F - 37.0 °F 61% 29.95 in 10.0 mi Calm Calm - N/A   Clear
6:54 PM 44.1 °F 42.5 °F 37.9 °F 79% 29.96 in 10.0 mi South 3.5 mph - N/A   Clear
7:54 PM 44.1 °F - 37.0 °F 76% 29.97 in 10.0 mi Calm Calm - N/A   Clear
8:54 PM 42.1 °F - 37.9 °F 85% 29.99 in 10.0 mi Calm Calm - N/A   Clear
9:54 PM 42.1 °F - 37.0 °F 82% 29.99 in 10.0 mi Calm Calm - N/A   Clear
10:54 PM 42.1 °F - 37.0 °F 82% 29.99 in 10.0 mi Calm Calm - N/A   Clear
11:54 PM 39.9 °F - 37.0 °F 89% 29.99 in 10.0 mi Calm Calm - N/A   Clear